DW4699 Weather Reports


time (UTC)temp
C
wind
direction
speed
KPH
gust
KPH
rain 1hr
cm
rain 24hr
cm
rain mn
cm
humidity
%
barometer
mb
20200404025825 10 78 0.0 0.0 0.00 0.00 0.00 68 1012.3
20200404025339 11 78 0.0 1.6 0.00 0.00 0.00 68 1012.3
20200404024831 11 78 0.0 3.2 0.00 0.00 0.00 67 1012.2
20200404024327 11 197 0.0 1.6 0.00 0.00 0.00 67 1012.3
20200404023841 11 197 0.0 3.2 0.00 0.00 0.00 67 1012.2
20200404023334 11 198 0.0 6.4 0.00 0.00 0.00 67 1012.1
20200404022830 11 208 0.0 6.4 0.00 0.00 0.00 66 1012.1
20200404022329 11 209 0.0 6.4 0.00 0.00 0.00 66 1012.0
20200404021822 11 211 0.0 3.2 0.00 0.00 0.00 65 1012.0
20200404021336 11 105 0.0 1.6 0.00 0.00 0.00 65 1012.0
20200404020827 11 106 0.0 1.6 0.00 0.00 0.00 64 1011.9
20200404020340 11 105 0.0 1.6 0.00 0.00 0.00 64 1011.9
20200404015833 11 105 0.0 3.2 0.00 0.00 0.00 63 1011.8
20200404015327 11 105 0.0 3.2 0.00 0.00 0.00 63 1011.7
20200404014820 12 9 0.0 1.6 0.00 0.00 0.00 62 1011.7
20200404014340 12 9 0.0 1.6 0.00 0.00 0.00 62 1011.6
20200404013833 12 9 0.0 1.6 0.00 0.00 0.00 61 1011.6
20200404013326 12 9 0.0 1.6 0.00 0.00 0.00 60 1011.5
20200404012820 12 10 0.0 1.6 0.00 0.00 0.00 62 1011.4
20200404012336 12 35 0.0 1.6 0.00 0.00 0.00 59 1011.2
20200404011829 12 37 0.0 1.6 0.00 0.00 0.00 58 1011.1
20200404011341 12 37 0.0 0.0 0.00 0.00 0.00 58 1011.1
20200404010834 13 37 0.0 0.0 0.00 0.00 0.00 56 1010.9
20200404010331 13 37 0.0 1.6 0.00 0.00 0.00 55 1010.9
20200404005824 13 37 0.0 1.6 0.00 0.00 0.00 55 1010.8
20200404005338 13 37 0.0 1.6 0.00 0.00 0.00 53 1010.7
20200404004946 13 37 0.0 1.6 0.00 0.00 0.00 52 1010.6
20200404004327 13 42 0.0 1.6 0.00 0.00 0.00 52 1010.5
20200404003840 14 42 0.0 1.6 0.00 0.00 0.00 50 1010.3
20200404003333 14 101 0.0 1.6 0.00 0.00 0.00 50 1010.3
20200404002832 15 101 0.0 6.4 0.00 0.00 0.00 50 1010.2
20200404002339 15 126 0.0 6.4 0.00 0.00 0.00 49 1010.1
20200404001832 15 259 0.0 1.6 0.00 0.00 0.00 48 1010.0
20200404001325 15 241 0.0 1.6 0.00 0.00 0.00 47 1009.8
20200404000819 15 241 0.0 3.2 0.00 0.00 0.00 46 1009.6
20200404000336 16 241 0.0 3.2 0.00 0.00 0.00 46 1009.5
20200403235828 16 277 0.0 3.2 0.00 0.00 0.00 44 1009.4
20200403235341 16 44 0.0 4.8 0.00 0.00 0.00 44 1009.2
20200403234838 16 44 1.6 4.8 0.00 0.00 0.00 42 1009.0
20200403234334 17 167 0.0 3.2 0.00 0.00 0.00 41 1008.9
20200403233828 17 342 1.6 3.2 0.00 0.00 0.00 39 1008.9
20200403233324 17 306 0.0 6.4 0.00 0.00 0.00 39 1008.7
20200403232837 17 348 0.0 9.7 0.00 0.00 0.00 39 1008.6
20200403232328 17 251 4.8 9.7 0.00 0.00 0.00 38 1008.5
20200403231841 17 254 1.6 8.0 0.00 0.00 0.00 39 1008.6
20200403231334 17 24 1.6 8.0 0.00 0.00 0.00 38 1008.6
20200403230830 17 330 1.6 11.3 0.00 0.00 0.00 38 1008.5
20200403230323 17 15 3.2 6.4 0.00 0.00 0.00 38 1008.5
20200403225831 17 216 1.6 12.9 0.00 0.00 0.00 38 1008.4
20200403225720 17 217 1.6 12.9 0.00 0.00 0.00 38 1008.5
20200403224829 17 211 1.6 8.0 0.00 0.00 0.00 38 1008.5
20200403224341 17 204 0.0 8.0 0.00 0.00 0.00 38 1008.3
20200403223331 17 31 1.6 8.0 0.00 0.00 0.00 37 1008.2
20200403222904 17 315 3.2 12.9 0.00 0.00 0.00 38 1008.2
20200403222351 17 261 1.6 8.0 0.00 0.00 0.00 38 1008.0
20200403221827 17 18 1.6 8.0 0.00 0.00 0.00 37 1007.9
20200403221323 17 293 0.0 8.0 0.00 0.00 0.00 37 1007.9
20200403220836 17 319 1.6 8.0 0.00 0.00 0.00 37 1007.9
20200403220329 18 332 1.6 14.5 0.00 0.00 0.00 36 1007.8
20200403215821 18 232 4.8 14.5 0.00 0.00 0.00 36 1007.9
20200403215510 18 347 0.0 12.9 0.00 0.00 0.00 36 1007.7
20200403214832 18 63 1.6 12.9 0.00 0.00 0.00 36 1007.7
20200403214344 18 103 0.0 11.3 0.00 0.00 0.00 36 1007.6
20200403213825 18 266 1.6 14.5 0.00 0.00 0.00 36 1007.6
20200403213323 18 20 6.4 14.5 0.00 0.00 0.00 36 1007.6
20200403212837 18 26 4.8 9.7 0.00 0.00 0.00 36 1007.4
20200403212330 18 316 0.0 11.3 0.00 0.00 0.00 36 1007.6
20200403211842 18 198 1.6 8.0 0.00 0.00 0.00 37 1007.5
20200403211332 18 235 1.6 11.3 0.00 0.00 0.00 36 1007.4
20200403210825 18 213 6.4 11.3 0.00 0.00 0.00 35 1007.5
20200403210416 18 308 0.0 8.0 0.00 0.00 0.00 37 1007.4
20200403205827 18 328 1.6 12.9 0.00 0.00 0.00 35 1007.3
20200403205324 18 332 1.6 12.9 0.00 0.00 0.00 36 1007.2
20200403204822 18 234 1.6 12.9 0.00 0.00 0.00 36 1007.2
20200403204335 18 3 1.6 12.9 0.00 0.00 0.00 35 1007.2
20200403203825 18 240 4.8 11.3 0.00 0.00 0.00 35 1007.2
20200403203338 18 216 3.2 11.3 0.00 0.00 0.00 34 1007.1
20200403202825 18 308 4.8 11.3 0.00 0.00 0.00 35 1007.1
20200403202335 18 282 6.4 12.9 0.00 0.00 0.00 35 1007.3
20200403201907 18 15 3.2 12.9 0.00 0.00 0.00 35 1007.2
20200403201338 18 35 1.6 12.9 0.00 0.00 0.00 36 1007.1
20200403200833 18 227 1.6 12.9 0.00 0.00 0.00 35 1007.2
20200403200338 18 25 4.8 12.9 0.00 0.00 0.00 34 1007.2
20200403195825 18 210 3.2 8.0 0.00 0.00 0.00 36 1007.1
20200403195339 18 267 3.2 11.3 0.00 0.00 0.00 34 1007.0
20200403194831 18 328 1.6 11.3 0.00 0.00 0.00 35 1007.0
20200403194323 18 263 3.2 9.7 0.00 0.00 0.00 33 1007.2
20200403193837 18 15 3.2 14.5 0.00 0.00 0.00 34 1007.2
20200403193329 18 15 0.0 14.5 0.00 0.00 0.00 34 1007.1
20200403192822 18 231 4.8 11.3 0.00 0.00 0.00 34 1007.2
20200403192335 18 233 1.6 8.0 0.00 0.00 0.00 35 1007.2
20200403191834 18 236 1.6 12.9 0.00 0.00 0.00 34 1007.2
20200403191327 18 248 1.6 12.9 0.00 0.00 0.00 34 1007.2
20200403190841 18 196 1.6 9.7 0.00 0.00 0.00 34 1007.2
20200403190333 18 236 0.0 11.3 0.00 0.00 0.00 35 1007.2
20200403185906 17 269 1.6 11.3 0.00 0.00 0.00 34 1007.3
20200403185334 18 213 3.2 11.3 0.00 0.00 0.00 34 1007.4
20200403184949 18 231 1.6 9.7 0.00 0.00 0.00 35 1007.4
20200403184334 17 204 1.6 14.5 0.00 0.00 0.00 36 1007.3
20200403183928 17 6 1.6 14.5 0.00 0.00 0.00 35 1007.4
20200403183329 17 350 4.8 9.7 0.00 0.00 0.00 35 1007.5
20200403182826 17 247 1.6 11.3 0.00 0.00 0.00 36 1007.3
20200403182339 17 298 6.4 11.3 0.00 0.00 0.00 34 1007.5
20200403181832 17 234 1.6 11.3 0.00 0.00 0.00 34 1007.5
20200403181325 17 13 3.2 11.3 0.00 0.00 0.00 34 1007.4
20200403180839 17 83 3.2 14.5 0.00 0.00 0.00 34 1007.5
20200403180332 17 6 4.8 14.5 0.00 0.00 0.00 34 1007.6
20200403175825 17 261 0.0 12.9 0.00 0.00 0.00 35 1007.6
20200403175338 17 334 1.6 12.9 0.00 0.00 0.00 34 1007.6
20200403174835 17 20 3.2 14.5 0.00 0.00 0.00 36 1007.6
20200403174327 16 352 4.8 20.9 0.00 0.00 0.00 35 1007.6
20200403173842 16 358 1.6 12.9 0.00 0.00 0.00 36 1007.7
20200403173333 16 19 4.8 12.9 0.00 0.00 0.00 34 1007.7
20200403172827 16 11 3.2 16.1 0.00 0.00 0.00 34 1007.6
20200403172341 16 274 6.4 16.1 0.00 0.00 0.00 34 1007.7
20200403171833 16 350 4.8 16.1 0.00 0.00 0.00 35 1007.7
20200403171326 16 218 4.8 11.3 0.00 0.00 0.00 34 1007.8
20200403170824 16 299 3.2 11.3 0.00 0.00 0.00 34 1007.8
20200403170336 16 313 4.8 11.3 0.00 0.00 0.00 34 1007.8
20200403165829 16 265 0.0 12.9 0.00 0.00 0.00 36 1007.8
20200403165341 16 246 3.2 19.3 0.00 0.00 0.00 35 1007.8
20200403164833 16 295 3.2 19.3 0.00 0.00 0.00 35 1007.8
20200403164329 16 259 6.4 14.5 0.00 0.00 0.00 35 1007.9
20200403163823 16 223 3.2 14.5 0.00 0.00 0.00 34 1007.8
20200403163336 15 270 4.8 16.1 0.00 0.00 0.00 36 1008.0
20200403162832 15 9 1.6 16.1 0.00 0.00 0.00 35 1008.1
20200403162326 15 232 4.8 12.9 0.00 0.00 0.00 37 1008.2
20200403161823 15 322 3.2 11.3 0.00 0.00 0.00 37 1008.2
20200403161335 15 263 1.6 14.5 0.00 0.00 0.00 40 1008.2
20200403160833 15 9 3.2 14.5 0.00 0.00 0.00 39 1008.3
20200403160324 14 215 1.6 16.1 0.00 0.00 0.00 38 1008.3
20200403155836 14 238 4.8 16.1 0.00 0.00 0.00 37 1008.3
20200403155331 14 330 3.2 12.9 0.00 0.00 0.00 37 1008.2
20200403154844 13 240 3.2 12.9 0.00 0.00 0.00 38 1008.3
20200403154332 13 201 1.6 14.5 0.00 0.00 0.00 39 1008.4
20200403153825 13 242 6.4 14.5 0.00 0.00 0.00 38 1008.4
20200403153337 13 219 3.2 14.5 0.00 0.00 0.00 40 1008.5
20200403152829 13 297 4.8 12.9 0.00 0.00 0.00 39 1008.7
20200403152324 13 337 6.4 12.9 0.00 0.00 0.00 38 1008.6
20200403151839 12 11 1.6 19.3 0.00 0.00 0.00 39 1008.7
20200403151335 12 202 3.2 19.3 0.00 0.00 0.00 39 1008.9
20200403150831 12 227 3.2 14.5 0.00 0.00 0.00 39 1008.9
20200403150323 12 207 6.4 14.5 0.00 0.00 0.00 40 1008.9
20200403145836 12 253 4.8 12.9 0.00 0.00 0.00 42 1008.8
20200403145329 12 352 3.2 14.5 0.00 0.00 0.00 40 1008.9
20200403144822 12 1 3.2 14.5 0.00 0.00 0.00 41 1009.0
20200403144338 11 340 4.8 12.9 0.00 0.00 0.00 41 1009.0
20200403143835 11 321 4.8 12.9 0.00 0.00 0.00 41 1008.9
20200403143330 11 209 1.6 19.3 0.00 0.00 0.00 44 1009.1
20200403142824 11 233 3.2 19.3 0.00 0.00 0.00 43 1009.0
20200403142337 11 331 4.8 12.9 0.00 0.00 0.00 43 1008.9
20200403141830 11 210 1.6 12.9 0.00 0.00 0.00 43 1009.1
20200403141323 11 244 3.2 12.9 0.00 0.00 0.00 44 1009.0
20200403140837 11 218 3.2 12.9 0.00 0.00 0.00 44 1009.2
20200403140336 10 311 3.2 12.9 0.00 0.00 0.00 45 1009.0
20200403135829 10 283 1.6 12.9 0.00 0.00 0.00 44 1009.1
20200403135326 10 23 1.6 19.3 0.00 0.00 0.00 46 1009.0
20200403134839 10 219 4.8 19.3 0.00 0.00 0.00 45 1009.1
20200403134332 10 266 6.4 22.5 0.00 0.00 0.00 44 1009.1
20200403133825 10 305 6.4 22.5 0.00 0.00 0.00 45 1009.0
20200403133338 10 278 3.2 14.5 0.00 0.00 0.00 46 1009.0
20200403132831 10 29 4.8 20.9 0.00 0.00 0.00 46 1009.1
20200403132328 9 37 3.2 20.9 0.00 0.00 0.00 47 1009.1
20200403131828 9 240 3.2 16.1 0.00 0.00 0.00 45 1009.1
20200403131341 9 257 1.6 19.3 0.00 0.00 0.00 46 1009.0
20200403130834 9 228 4.8 19.3 0.00 0.00 0.00 46 1009.0
20200403130341 8 194 3.2 17.7 0.00 0.00 0.00 47 1009.1
20200403125834 8 250 6.4 17.7 0.00 0.00 0.00 45 1009.0
20200403125328 8 267 3.2 14.5 0.00 0.00 0.00 46 1009.0
20200403124837 8 328 3.2 14.5 0.00 0.00 0.00 47 1009.0
20200403124329 8 240 4.8 14.5 0.00 0.00 0.00 45 1008.8
20200403123826 8 259 3.2 14.5 0.00 0.00 0.00 46 1008.9
20200403123339 8 32 3.2 14.5 0.00 0.00 0.00 46 1008.8
20200403122834 8 217 3.2 14.5 0.00 0.00 0.00 47 1008.9
20200403122324 8 290 1.6 12.9 0.00 0.00 0.00 46 1009.0
20200403121837 7 357 6.4 14.5 0.00 0.00 0.00 46 1009.0
20200403121330 7 354 3.2 14.5 0.00 0.00 0.00 48 1009.1
20200403120823 7 9 1.6 11.3 0.00 0.00 0.00 46 1009.1
20200403120335 7 236 1.6 11.3 0.00 0.00 0.00 46 1009.1
20200403115325 7 303 0.0 9.7 0.00 0.00 0.00 47 1009.0
20200403114837 7 217 3.2 9.7 0.00 0.00 0.00 46 1009.1
20200403114333 7 327 1.6 11.3 0.00 0.00 0.00 46 1009.0
20200403113827 7 354 4.8 11.3 0.00 0.00 0.00 46 1009.0
20200403113340 7 315 1.6 8.0 0.00 0.00 0.00 46 1008.9
20200403112833 7 205 1.6 9.7 0.00 0.00 0.00 44 1008.9
20200403112326 7 207 3.2 11.3 0.00 0.00 0.00 45 1008.9
20200403111822 7 258 1.6 12.9 0.00 0.00 0.00 45 1008.8
20200403111336 7 234 4.8 12.9 0.00 0.00 0.00 44 1008.9
20200403110829 7 357 1.6 9.7 0.00 0.00 0.00 44 1008.9
20200403110400 7 218 1.6 9.7 0.00 0.00 0.00 43 1008.9
20200403105851 7 7 1.6 11.3 0.00 0.00 0.00 44 1008.9
20200403105323 7 230 3.2 11.3 0.00 0.00 0.00 43 1008.8
20200403104836 7 301 1.6 12.9 0.00 0.00 0.00 43 1008.7
20200403104350 7 248 4.8 12.9 0.00 0.00 0.00 42 1008.5
20200403103842 7 229 3.2 9.7 0.00 0.00 0.00 42 1008.6
20200403103329 7 263 1.6 11.3 0.00 0.00 0.00 42 1008.6
20200403102829 7 242 3.2 11.3 0.00 0.00 0.00 42 1008.6
20200403102347 7 232 1.6 8.0 0.00 0.00 0.00 42 1008.6
20200403101835 7 349 3.2 9.7 0.00 0.00 0.00 41 1008.7
20200403101328 7 236 1.6 9.7 0.00 0.00 0.00 40 1008.6
20200403100822 7 353 1.6 16.1 0.00 0.00 0.00 41 1008.5
20200403100422 7 252 1.6 16.1 0.00 0.00 0.00 41 1008.5
20200403095830 7 298 3.2 11.3 0.00 0.00 0.00 41 1008.4
20200403095323 7 223 0.0 9.7 0.00 0.00 0.00 41 1008.5
20200403094836 7 239 0.0 11.3 0.00 0.00 0.00 41 1008.4
20200403094325 7 346 3.2 11.3 0.00 0.00 0.00 40 1008.5
20200403093819 7 236 0.0 9.7 0.00 0.00 0.00 41 1008.4
20200403093334 7 229 3.2 11.3 0.00 0.00 0.00 41 1008.5
20200403092831 7 355 4.8 11.3 0.00 0.00 0.00 40 1008.5
20200403092337 7 1 1.6 8.0 0.00 0.00 0.00 42 1008.6
20200403091829 7 248 0.0 8.0 0.00 0.00 0.00 41 1008.5
20200403091322 8 153 0.0 6.4 0.00 0.00 0.00 41 1008.5
20200403090823 8 152 1.6 6.4 0.00 0.00 0.00 41 1008.5
20200403090338 8 330 1.6 6.4 0.00 0.00 0.00 40 1008.4
20200403085829 8 290 0.0 4.8 0.00 0.00 0.00 41 1008.3
20200403085323 8 208 0.0 9.7 0.00 0.00 0.00 40 1008.4
20200403084836 8 235 0.0 9.7 0.00 0.00 0.00 41 1008.3
20200403084331 8 255 3.2 11.3 0.00 0.00 0.00 41 1008.3
20200403083823 8 196 3.2 11.3 0.00 0.00 0.00 41 1008.3
20200403083357 8 309 3.2 8.0 0.00 0.00 0.00 41 1008.3
20200403082833 8 233 1.6 9.7 0.00 0.00 0.00 42 1008.3
20200403082331 8 250 0.0 9.7 0.00 0.00 0.00 43 1008.3
20200403081825 8 331 0.0 9.7 0.00 0.00 0.00 43 1008.3
20200403081337 8 5 1.6 6.4 0.00 0.00 0.00 42 1008.3
20200403080830 8 232 0.0 6.4 0.00 0.00 0.00 43 1008.4
20200403080322 8 236 0.0 6.4 0.00 0.00 0.00 43 1008.4
20200403075835 8 23 1.6 9.7 0.00 0.00 0.00 43 1008.3
20200403075333 8 206 0.0 9.7 0.00 0.00 0.00 44 1008.4
20200403074828 8 341 1.6 6.4 0.00 0.00 0.00 43 1008.5
20200403074340 8 239 1.6 6.4 0.00 0.00 0.00 44 1008.4
20200403073834 8 196 1.6 6.4 0.00 0.00 0.00 44 1008.4
20200403073345 8 308 0.0 9.7 0.00 0.00 0.00 45 1008.6
20200403072830 9 230 0.0 9.7 0.00 0.00 0.00 45 1008.5
20200403072323 9 221 0.0 14.5 0.00 0.00 0.00 45 1008.6
20200403071835 9 43 0.0 14.5 0.00 0.00 0.00 45 1008.5
20200403071328 9 294 0.0 9.7 0.00 0.00 0.00 46 1008.6
20200403070825 9 289 3.2 9.7 0.00 0.00 0.00 46 1008.5
20200403070321 9 242 0.0 6.4 0.00 0.00 0.00 45 1008.5
20200403065834 9 275 0.0 8.0 0.00 0.00 0.00 45 1008.7
20200403065328 9 236 0.0 9.7 0.00 0.00 0.00 46 1008.8
20200403064820 9 244 1.6 9.7 0.00 0.00 0.00 45 1008.8
20200403064333 9 280 1.6 9.7 0.00 0.00 0.00 46 1008.8
20200403063829 9 256 1.6 9.7 0.00 0.00 0.00 46 1008.8
20200403063324 9 1 1.6 8.0 0.00 0.00 0.00 46 1008.9
20200403062840 9 209 0.0 8.0 0.00 0.00 0.00 46 1008.9
20200403062335 9 238 3.2 9.7 0.00 0.00 0.00 46 1009.0
20200403061827 10 199 0.0 9.7 0.00 0.00 0.00 47 1009.0
20200403061341 10 289 1.6 9.7 0.00 0.00 0.00 47 1008.9
20200403060835 10 30 1.6 8.0 0.00 0.00 0.00 48 1009.0
20200403060327 10 280 0.0 6.4 0.00 0.00 0.00 47 1009.1
20200403055841 10 199 0.0 6.4 0.00 0.00 0.00 47 1009.2
20200403055333 10 188 0.0 8.0 0.00 0.00 0.00 46 1009.2
20200403054829 10 334 0.0 8.0 0.00 0.00 0.00 47 1009.3
20200403054325 10 253 3.2 8.0 0.00 0.00 0.00 46 1009.3
20200403053820 10 212 0.0 6.4 0.00 0.00 0.00 47 1009.3
20200403053335 10 350 0.0 8.0 0.00 0.00 0.00 45 1009.4
20200403052827 10 217 3.2 8.0 0.00 0.00 0.00 45 1009.5
20200403052341 10 220 1.6 8.0 0.00 0.00 0.00 45 1009.6
20200403051833 10 258 0.0 3.2 0.00 0.00 0.00 45 1009.6
20200403051329 10 318 0.0 9.7 0.00 0.00 0.00 45 1009.6
20200403050836 10 215 1.6 8.0 0.00 0.00 0.00 44 1009.6
20200403050329 10 249 1.6 8.0 0.00 0.00 0.00 44 1009.5
20200403045824 10 239 1.6 6.4 0.00 0.00 0.00 45 1009.6
20200403045337 11 251 0.0 8.0 0.00 0.00 0.00 44 1009.5
20200403044829 11 322 0.0 17.7 0.00 0.00 0.00 44 1009.4
20200403044323 11 219 6.4 17.7 0.00 0.00 0.00 43 1009.5
20200403043835 11 352 4.8 12.9 0.00 0.00 0.00 43 1009.4
20200403043334 11 216 3.2 12.9 0.00 0.00 0.00 43 1009.5
20200403042827 11 215 1.6 12.9 0.00 0.00 0.00 43 1009.6
20200403042325 11 202 3.2 11.3 0.00 0.00 0.00 43 1009.5
20200403041836 11 347 1.6 9.7 0.00 0.00 0.00 43 1009.5
20200403041329 11 234 1.6 12.9 0.00 0.00 0.00 42 1009.5
20200403040838 11 331 1.6 12.9 0.00 0.00 0.00 42 1009.4
20200403040330 11 219 3.2 12.9 0.00 0.00 0.00 42 1009.5
20200403035823 11 331 0.0 8.0 0.00 0.00 0.00 42 1009.6
20200403035340 11 199 1.6 11.3 0.00 0.00 0.00 42 1009.5
20200403034832 11 212 0.0 11.3 0.00 0.00 0.00 42 1009.5
20200403034324 11 224 0.0 9.7 0.00 0.00 0.00 42 1009.6
20200403033837 11 243 1.6 9.7 0.00 0.00 0.00 41 1009.5
20200403033329 11 339 1.6 9.7 0.00 0.00 0.00 41 1009.6
20200403032822 11 313 1.6 9.7 0.00 0.00 0.00 40 1009.4
20200403032335 11 202 0.0 8.0 0.00 0.00 0.00 40 1009.5
20200403031828 12 300 1.6 8.0 0.00 0.00 0.00 40 1009.5
20200403031327 12 348 1.6 9.7 0.00 0.00 0.00 40 1009.5
20200403030840 12 352 0.0 12.9 0.00 0.00 0.00 39 1009.5
20200403030333 12 338 6.4 17.7 0.00 0.00 0.00 39 1009.3